Hourly Data Report for September 13, 2019

QUALICUM BEACH AIRPORT
BRITISH COLUMBIA
Current Station Operator: ECCC - MSC

49°20'14.000" N
124°23'38.000" W
58.20 m
1026562
71766
VOQ

Download Data

Hourly Data (September 2019)
Hourly Data Report for September 13, 2019
TIME
LST
Temp Definition
°C
Dew Point Definition
°C
Rel Hum Definition
%
Precip. Amount Definition
mm

Wind Dir Definition
10's deg

Wind Spd Definition
km/h
Visibility Definition
km
Stn Press Definition
kPa
Hmdx Definition


Wind Chill Definition


Weather Definition


00:00 13.2 12.5 96 0.0 0 1   100.88     LegendNANA
01:00 12.8 12.2 96 0.0 16 2   100.91     LegendNANA
02:00 12.2 11.7 97 0.0 26 1   100.92     LegendNANA
03:00 12.2 11.8 97 0.0 25 4   100.93     LegendNANA
04:00 12.3 11.9 97 0.0 27 3   100.94     LegendNANA
05:00 11.8 11.4 97 0.0 18 2   100.96     LegendNANA
06:00 11.9 11.5 97 0.0 29 2   101.00     LegendNANA
07:00 12.6 12.2 98 0.0 0 1   101.02     LegendNANA
08:00 13.7 13.2 97 0.0 0 1   101.04     LegendNANA
09:00 14.9 13.8 94 0.0 14 2   101.07     LegendNANA
10:00 15.6 14.2 91 0.0 2 2   101.10     LegendNANA
11:00 16.5 13.9 85 0.0 9 9   101.08     LegendNANA
12:00 17.8 14.1 79 0.0 10 7   101.08     LegendNANA
13:00 17.2 14.3 83 0.0 9 12   101.07     LegendNANA
14:00 16.9 14.1 83 0.0 9 9   101.04     LegendNANA
15:00 16.3 14.3 88 0.0 5 2   101.02     LegendNANA
16:00 15.8 14.8 94 0.5 3 1   101.03     LegendNANA
17:00 16.0 15.2 95 0.6 7 3   100.97     LegendNANA
18:00 15.9 15.3 96 0.0 29 4   100.96     LegendNANA
19:00 15.5 14.9 96 1.3 16 6   100.93     LegendNANA
20:00 14.3 12.9 91 0.0 21 4   100.97     LegendNANA
21:00 13.9 12.8 93 0.2 28 2   100.94     LegendNANA
22:00 13.9 13.1 95 0.1 17 5   100.94     LegendNANA
23:00 14.3 11.6 84 0.0 17 6   100.90     LegendNANA

Notes on Data Quality.

Legend

  • E = Estimated
  • M = Missing
  • NA = Not Available*
  • [empty] = Indicates an unobserved value
Date modified: